Printer-friendly version

IAU Minor Planet Center

Minor Planet Center

186P/Garradd

Orbital Elements

The following orbital elements are taken from MPC 59045:
186P/Garradd
Epoch 2008 Apr. 4.0 TT = JDT 2454560.5
T 2008 Mar. 20.5030 TT                                  MPC
q   4.263475             (2000.0)            P               Q
n   0.0926746      Peri.  278.7443      -0.3319242      +0.9077112
a   4.836104       Node   327.8545      -0.5570935      -0.4082184
e   0.118407       Incl.   28.8439      -0.7612314      -0.0970473
P  10.6
From 49 observations 1975-2007, mean residual 0".6.
Elements are also available for the current standard epoch:
186P/Garradd
Epoch 2009 June 18.0 TT = JDT 2455000.5
T 2008 Mar. 31.4063 TT                                  MPC
q   4.267101             (2000.0)            P               Q
n   0.0919896      Peri.  280.0590      -0.3120103      +0.9145152
a   4.860083       Node   327.7751      -0.5655198      -0.3965631
e   0.122011       Incl.   28.8758      -0.7634375      -0.0799985
P  10.7
An explanation of the orbital elements is available.

These orbital elements are also available in forms suitable for loading into a number of popular planetarium-type software programs.


Ephemeris

The following ephemeris is at intervals of five days. A daily ephemeris covering the same time interval is also available.

Personalized ephemerides for this (and other) objects may be generated using the Minor Planet & Comet Ephemeris Service.

Recent magnitude estimates for this comet (as reported to the ICQ) may be available.

Date    TT    R. A. (2000) Decl.     Delta      r     Elong.  Phase   m1    m2

WARNING!

This comet gets close to the sun during the period covered in the ephemeris below. Observers are warned to be wary of observing comets near the sun. NEVER point any kind of optical instrument at the sun--instant blindness will be the probable result.

2009 06 08 21 19.73 -32 48.6 3.798 4.439 123.5 11.0 16.9 2009 06 13 21 18.66 -32 51.7 3.743 4.443 128.2 10.3 16.8 2009 06 18 21 17.15 -32 55.4 3.692 4.447 133.0 9.6 16.8 2009 06 23 21 15.20 -32 59.3 3.645 4.451 137.8 8.8 16.8 2009 06 28 21 12.84 -33 03.0 3.604 4.454 142.5 8.0 16.8 2009 07 03 21 10.09 -33 06.4 3.569 4.458 147.3 7.1 16.8 2009 07 08 21 07.01 -33 09.0 3.539 4.462 151.9 6.2 16.7 2009 07 13 21 03.63 -33 10.4 3.516 4.466 156.3 5.3 16.7 2009 07 18 21 00.00 -33 10.5 3.500 4.470 160.2 4.4 16.7 2009 07 23 20 56.18 -33 08.8 3.491 4.474 163.3 3.7 16.7 2009 07 28 20 52.25 -33 05.2 3.489 4.478 165.0 3.4 16.7 2009 08 02 20 48.28 -32 59.5 3.494 4.482 164.8 3.4 16.7 2009 08 07 20 44.35 -32 51.4 3.507 4.486 162.8 3.8 16.7 2009 08 12 20 40.52 -32 41.1 3.527 4.490 159.4 4.5 16.8 2009 08 17 20 36.86 -32 28.5 3.553 4.494 155.4 5.4 16.8 2009 08 22 20 33.43 -32 13.7 3.587 4.498 150.8 6.3 16.8 2009 08 27 20 30.29 -31 56.7 3.628 4.502 146.1 7.2 16.8 2009 09 01 20 27.49 -31 37.8 3.674 4.506 141.3 8.1 16.9 2009 09 06 20 25.07 -31 17.2 3.726 4.510 136.4 8.9 16.9 2009 09 11 20 23.05 -30 55.0 3.784 4.514 131.5 9.6 16.9 2009 09 16 20 21.45 -30 31.5 3.846 4.518 126.6 10.3 17.0 2009 09 21 20 20.28 -30 06.8 3.913 4.523 121.7 10.9 17.0 2009 09 26 20 19.54 -29 41.1 3.983 4.527 116.9 11.4 17.1 2009 10 01 20 19.24 -29 14.6 4.057 4.531 112.2 11.8 17.1 2009 10 06 20 19.36 -28 47.4 4.133 4.535 107.5 12.1 17.1 2009 10 11 20 19.88 -28 19.6 4.212 4.540 102.9 12.4 17.2 2009 10 16 20 20.80 -27 51.3 4.292 4.544 98.3 12.5 17.2 2009 10 21 20 22.09 -27 22.6 4.373 4.548 93.7 12.6 17.3 2009 10 26 20 23.74 -26 53.4 4.455 4.553 89.3 12.6 17.3 2009 10 31 20 25.72 -26 24.0 4.537 4.557 84.9 12.5 17.4 2009 11 05 20 28.02 -25 54.2 4.619 4.561 80.5 12.4 17.4 2009 11 10 20 30.60 -25 24.1 4.699 4.566 76.2 12.2 17.5 2009 11 15 20 33.44 -24 53.6 4.779 4.570 72.0 11.9 17.5 2009 11 20 20 36.54 -24 22.9 4.857 4.575 67.7 11.5 17.5 2009 11 25 20 39.85 -23 51.8 4.933 4.579 63.6 11.1 17.6 2009 11 30 20 43.37 -23 20.4 5.006 4.584 59.4 10.7 17.6 2009 12 05 20 47.08 -22 48.7 5.077 4.588 55.3 10.2 17.6 2009 12 10 20 50.94 -22 16.6 5.144 4.593 51.3 9.6 17.7 2009 12 15 20 54.96 -21 44.1 5.209 4.597 47.2 9.0 17.7 2009 12 20 20 59.10 -21 11.3 5.269 4.602 43.2 8.4 17.7 2009 12 25 21 03.35 -20 38.1 5.326 4.606 39.2 7.8 17.8 2009 12 30 21 07.70 -20 04.6 5.379 4.611 35.3 7.1 17.8 2010 01 04 21 12.13 -19 30.7 5.427 4.616 31.4 6.4 17.8 2010 01 09 21 16.63 -18 56.4 5.471 4.620 27.5 5.6 17.8 2010 01 14 21 21.18 -18 21.8 5.510 4.625 23.6 4.9 17.9 2010 01 19 21 25.76 -17 46.9 5.544 4.630 19.7 4.1 17.9 2010 01 24 21 30.38 -17 11.7 5.573 4.634 15.8 3.3 17.9 2010 01 29 21 35.00 -16 36.2 5.598 4.639 12.0 2.5 17.9 2010 02 03 21 39.63 -16 00.4 5.617 4.644 8.2 1.7 17.9 2010 02 08 21 44.25 -15 24.5 5.631 4.648 4.5 1.0 17.9 2010 02 13 21 48.85 -14 48.3 5.640 4.653 1.5 0.3 17.9 2010 02 18 21 53.41 -14 11.9 5.644 4.658 3.7 0.8 17.9 2010 02 23 21 57.94 -13 35.5 5.642 4.663 7.3 1.5 17.9 2010 02 28 22 02.41 -12 59.0 5.636 4.667 11.1 2.3 17.9 2010 03 05 22 06.83 -12 22.4 5.624 4.672 14.8 3.1 17.9 2010 03 10 22 11.17 -11 45.9 5.607 4.677 18.6 3.9 17.9 2010 03 15 22 15.43 -11 09.4 5.586 4.682 22.4 4.6 17.9 2010 03 20 22 19.60 -10 33.0 5.559 4.687 26.2 5.4 17.9 2010 03 25 22 23.67 -09 56.8 5.528 4.691 30.0 6.1 17.9 2010 03 30 22 27.63 -09 20.7 5.492 4.696 33.9 6.8 17.9 2010 04 04 22 31.46 -08 45.0 5.453 4.701 37.7 7.5 17.9 2010 04 09 22 35.17 -08 09.6 5.408 4.706 41.5 8.1 17.9 2010 04 14 22 38.74 -07 34.5 5.360 4.711 45.4 8.7 17.9 2010 04 19 22 42.15 -06 59.9 5.309 4.716 49.3 9.3 17.9 2010 04 24 22 45.39 -06 25.8 5.253 4.721 53.2 9.8 17.8 2010 04 29 22 48.46 -05 52.3 5.195 4.726 57.2 10.3 17.8 2010 05 04 22 51.34 -05 19.3 5.134 4.730 61.2 10.8 17.8 2010 05 09 22 54.02 -04 47.1 5.070 4.735 65.2 11.2 17.8 2010 05 14 22 56.49 -04 15.6 5.003 4.740 69.2 11.5 17.8 2010 05 19 22 58.73 -03 45.0 4.935 4.745 73.4 11.8 17.7 2010 05 24 23 00.74 -03 15.3 4.865 4.750 77.5 12.0 17.7 2010 05 29 23 02.49 -02 46.6 4.794 4.755 81.7 12.2 17.7 2010 06 03 23 03.97 -02 18.9 4.722 4.760 86.0 12.3 17.6 2010 06 08 23 05.18 -01 52.4 4.650 4.765 90.3 12.3 17.6 2010 06 13 23 06.10 -01 27.1 4.578 4.770 94.7 12.3 17.6 2010 06 18 23 06.71 -01 03.2 4.506 4.775 99.2 12.1 17.6 2010 06 23 23 07.01 -00 40.6 4.436 4.780 103.7 11.9 17.5 2010 06 28 23 07.00 -00 19.5 4.367 4.785 108.3 11.6 17.5 2010 07 03 23 06.65 -00 00.0 4.300 4.790 113.0 11.3 17.5 2010 07 08 23 05.98 +00 17.9 4.236 4.795 117.8 10.8 17.4 2010 07 13 23 04.98 +00 34.0 4.175 4.800 122.6 10.3 17.4

Back to Observable Comets


Valid HTML 4.01!